Weather observations for the past three days for
New Ulm Municipal Airport
Imperial (Metric)
Date Time (cdt) Wind (mph) Vis. (mi.) Weather Sky Cond. Temperature (ºF) Relative Humidity Wind Chill (°F) Heat Index (°F) Pressure Precipitation (in)
Air Dwpt 6 hour altimeter (in) sea level (mb) 1 hr 3 hr 6 hr
Max. Min.
03 20:15 Calm 10.00 Fair CLR 64.4 37.4 37% 29.68 0.0
03 19:55 NW 3 10.00 Fair CLR 66.2 37.4 35% 29.68 0.0
03 19:35 NW 3 10.00 Fair CLR 66.2 39.2 37% 29.68 0.0
03 19:15 NW 6 10.00 Fair CLR 68 37.4 33% 29.69 0.0
03 18:55 NW 9 10.00 Fair CLR 69.8 39.2 33% 29.7 0.0
03 18:35 NW 13 10.00 Fair CLR 69.8 37.4 31% 29.71 0.0
03 18:15 NW 13 G 17 10.00 Fair CLR 69.8 37.4 31% 29.71 0.0
03 17:55 NW 14 G 20 10.00 Fair CLR 69.8 37.4 31% 29.71 0.0
03 17:15 NW 14 G 20 10.00 Fair CLR 71.6 39.2 31% 29.72 0.0
03 16:55 NW 17 G 25 10.00 Fair CLR 69.8 39.2 33% 29.72 0.0
03 16:35 NW 17 10.00 Fair CLR 69.8 39.2 33% 29.72 0.0
03 16:15 W 20 G 26 10.00 Fair CLR 71.6 39.2 31% 29.73 0.0
03 15:55 W 16 G 22 10.00 Fair CLR 69.8 39.2 33% 29.74 0.0
03 15:35 NW 15 G 25 10.00 Fair CLR 69.8 41 35% 29.74 0.0
03 15:15 NW 18 G 25 10.00 Fair CLR 69.8 41 35% 29.75 0.0
03 14:55 NW 15 G 26 10.00 Fair CLR 69.8 41 35% 29.76 0.0
03 14:35 NW 22 G 28 10.00 Fair and Breezy CLR 69.8 41 35% 29.76 0.0
03 14:15 NW 22 G 29 10.00 Fair and Breezy CLR 69.8 41 35% 29.77 0.0
03 13:55 NW 22 G 29 10.00 Fair and Breezy CLR 69.8 42.8 38% 29.77 0.0
03 13:35 NW 18 G 29 10.00 Fair CLR 68 41 38% 29.78 0.0
03 13:15 N 15 G 25 10.00 Fair CLR 68 39.2 35% 29.78 0.0
03 12:55 NW 12 G 16 10.00 Fair CLR 66.2 41 40% 29.79 0.0
03 12:35 NW 17 G 32 10.00 Fair CLR 66.2 41 40% 29.79 0.0
03 12:15 NW 21 G 29 10.00 Fair and Breezy CLR 66.2 41 40% 29.79 0.0
03 11:35 NW 16 G 28 10.00 Fair CLR 66.2 42.8 43% 29.8 0.0
03 11:15 NW 18 G 26 10.00 Fair CLR 66.2 42.8 43% 29.79 0.0
03 10:55 NW 16 G 26 10.00 Fair CLR 64.4 44.6 49% 29.79 0.0
03 10:35 NW 22 G 26 10.00 Fair and Breezy CLR 64.4 44.6 49% 29.79 0.0
03 10:15 NW 20 10.00 Fair CLR 62.6 42.8 49% 29.79 0.0
03 09:55 NW 15 G 21 10.00 Fair CLR 62.6 42.8 49% 29.79 0.0
03 09:35 NW 17 G 22 10.00 Fair CLR 60.8 42.8 52% 29.79 0.0
03 09:15 NW 16 G 22 10.00 Fair CLR 57.2 42.8 59% 29.78 0.0
03 08:55 NW 16 G 24 10.00 Fair CLR 57.2 41 55% 29.78 0.0
03 08:35 NW 16 G 24 10.00 Fair CLR 55.4 41 59% 29.77 0.0
03 08:15 NW 17 10.00 Fair CLR 55.4 39.2 55% 29.76 0.0
03 07:55 NW 17 G 25 10.00 Fair CLR 53.6 39.2 58% 29.75 0.0
03 07:35 NW 16 G 25 10.00 Fair CLR 51.8 39.2 62% 29.74 0.0
03 07:15 NW 18 G 22 10.00 Fair CLR 50 39.2 67% 44 29.72 0.0
03 06:55 NW 16 G 23 10.00 Fair CLR 48.2 39.2 71% 43 29.71 0.0
03 06:35 NW 15 10.00 Fair CLR 48.2 39.2 71% 43 29.71 0.0
03 06:15 NW 13 10.00 Fair CLR 50 39.2 67% 46 29.7 0.0
03 05:55 W 9 10.00 Fair CLR 48.2 39.2 71% 45 29.7 0.0
03 05:35 W 10 10.00 Fair CLR 50 39.2 67% 46 29.69 0.0
03 05:15 W 12 10.00 Fair CLR 51.8 39.2 62% 29.69 0.0
03 04:55 W 10 10.00 Fair CLR 51.8 39.2 62% 29.69 0.0
03 04:35 W 9 10.00 Fair CLR 51.8 39.2 62% 29.7 0.0
03 04:15 SW 8 10.00 Fair CLR 53.6 37.4 54% 29.69 0.0
03 03:55 SW 7 10.00 Fair CLR 53.6 37.4 54% 29.7 0.0
03 03:35 SW 10 10.00 Partly Cloudy SCT110 55.4 35.6 47% 29.7 0.0
03 03:15 S 9 10.00 Mostly Cloudy BKN110 55.4 35.6 47% 29.71 0.0
03 02:55 S 13 10.00 Fair CLR 55.4 35.6 47% 29.71 0.0
03 02:35 S 14 10.00 Fair CLR 55.4 35.6 47% 29.72 0.0
03 02:15 S 14 10.00 Fair CLR 57.2 35.6 44% 29.73 0.0
03 01:55 S 16 G 20 10.00 Partly Cloudy SCT100 57.2 35.6 44% 29.74 0.0
03 01:35 S 15 G 22 10.00 Mostly Cloudy BKN100 59 35.6 42% 29.74 0.0
03 01:15 S 15 10.00 Mostly Cloudy BKN100 59 35.6 42% 29.75 0.0
03 00:55 S 7 10.00 Mostly Cloudy BKN100 57.2 37.4 48% 29.77 0.0
03 00:35 SW 12 G 17 10.00 Partly Cloudy SCT090 59 37.4 45% 29.79 0.0
03 00:15 S 9 10.00 Overcast SCT070 BKN080 OVC110 59 39.2 48% 29.79 0.0
02 23:55 S 9 10.00 Light Rain SCT065 BKN080 OVC110 59 41 51% 29.81 0.0
02 23:35 SW 5 G 29 10.00 Light Rain SCT065 SCT070 OVC100 62.6 39.2 42% 29.8 0.0
02 23:15 S 7 G 10 10.00 Mostly Cloudy BKN100 60.8 35.6 39% 29.81 0.0
02 22:55 S 12 10.00 Mostly Cloudy SCT060 SCT095 BKN110 60.8 35.6 39% 29.8 0.0
02 22:35 S 8 10.00 Overcast SCT060 OVC095 60.8 37.4 42% 29.83 0.0
02 22:15 S 7 10.00 Overcast SCT080 OVC095 60.8 37.4 42% 29.83 0.0
02 21:55 S 8 10.00 Overcast OVC095 60.8 37.4 42% 29.83 0.0
02 21:35 S 9 10.00 Mostly Cloudy BKN095 60.8 37.4 42% 29.83 0.0
02 21:15 S 8 10.00 Mostly Cloudy BKN095 62.6 37.4 39% 29.84 0.0
02 20:55 S 10 10.00 Mostly Cloudy BKN095 62.6 37.4 39% 29.84 0.0
02 20:35 S 5 10.00 Mostly Cloudy SCT070 SCT080 BKN095 64.4 35.6 34% 29.85 0.0
02 20:15 SW 6 10.00 Mostly Cloudy SCT065 BKN085 62.6 37.4 39% 29.86 0.0
02 19:55 SW 3 10.00 Mostly Cloudy SCT065 BKN085 62.6 37.4 39% 29.86 0.0
02 19:35 SW 5 10.00 Partly Cloudy SCT065 SCT085 64.4 37.4 37% 29.87 0.0
02 19:15 SW 8 G 40 10.00 Mostly Cloudy SCT044 SCT055 BKN095 64.4 37.4 37% 29.89 0.0
02 18:55 W 17 G 22 10.00 Partly Cloudy SCT095 66.2 35.6 32% 29.87 0.0
02 18:35 W 18 G 23 10.00 Partly Cloudy SCT095 66.2 35.6 32% 29.87 0.0
02 18:15 SW 15 10.00 Partly Cloudy SCT095 66.2 35.6 32% 29.87 0.0
02 17:55 SW 15 10.00 Partly Cloudy SCT095 66.2 35.6 32% 29.87 0.0
02 17:35 W 14 G 18 10.00 Partly Cloudy SCT095 68 35.6 30% 29.88 0.0
02 17:15 W 14 10.00 Partly Cloudy SCT095 68 37.4 33% 29.88 0.0
02 16:55 W 12 G 22 10.00 Partly Cloudy SCT095 69.8 37.4 31% 29.89 0.0
02 16:35 SW 14 G 17 10.00 Partly Cloudy SCT095 69.8 37.4 31% 29.9 0.0
02 16:15 W 13 G 17 10.00 Partly Cloudy SCT095 68 37.4 33% 29.91 0.0
02 15:55 SW 17 G 26 10.00 Partly Cloudy SCT095 68 37.4 33% 29.92 0.0
02 15:35 W 12 G 20 10.00 Fair CLR 66.2 37.4 35% 29.93 0.0
02 15:15 W 9 10.00 Partly Cloudy SCT095 66.2 37.4 35% 29.95 0.0
02 14:55 SW 12 G 18 10.00 Fair CLR 64.4 37.4 37% 29.96 0.0
02 14:35 SW 10 G 17 10.00 Fair CLR 64.4 35.6 34% 29.97 0.0
02 14:15 SW 6 G 18 10.00 Fair CLR 64.4 35.6 34% 29.98 0.0
02 13:55 SW 12 G 24 10.00 Fair CLR 62.6 35.6 37% 29.99 0.0
02 13:35 W 15 G 18 10.00 Fair CLR 62.6 35.6 37% 30 0.0
02 13:15 W 6 G 20 10.00 Fair CLR 62.6 35.6 37% 30.01 0.0
02 12:55 SW 12 G 16 10.00 Fair CLR 60.8 33.8 36% 30.02 0.0
02 12:35 SW 9 G 17 10.00 Fair CLR 60.8 33.8 36% 30.03 0.0
02 12:15 SW 8 10.00 Fair CLR 60.8 33.8 36% 30.05 0.0
02 11:55 W 12 G 17 10.00 Fair CLR 59 33.8 39% 30.06 0.0
02 11:35 SW 9 G 16 10.00 Fair CLR 57.2 33.8 41% 30.06 0.0
02 11:15 W 8 10.00 Fair CLR 57.2 32 39% 30.07 0.0
02 10:55 W 5 G 9 10.00 Fair CLR 55.4 30.2 38% 30.08 0.0
02 10:35 W 10 10.00 Partly Cloudy SCT095 55.4 30.2 38% 30.08 0.0
02 10:15 SW 10 10.00 Fair CLR 55.4 33.8 44% 30.09 0.0
02 09:55 W 10 10.00 Fair CLR 53.6 33.8 47% 30.09 0.0
02 09:35 SW 12 10.00 Fair CLR 53.6 33.8 47% 30.09 0.0
02 09:15 SW 9 10.00 Fair CLR 51.8 35.6 54% 30.1 0.0
02 08:55 W 8 10.00 Fair CLR 50 35.6 58% 47 30.1 0.0
02 08:35 W 7 10.00 Fair CLR 46.4 35.6 66% 43 30.11 0.0
02 08:15 W 5 10.00 Fair CLR 42.8 35.6 76% 41 30.11 0.0
02 07:55 SW 5 10.00 Fair CLR 39.2 33.8 81% 36 30.11 0.0
02 07:35 Calm 10.00 Fair CLR 37.4 33.8 87% 30.11 0.0
02 07:15 Calm 10.00 Fair CLR 35.6 30.2 81% 30.11 0.0
02 06:55 Calm 10.00 Fair CLR 33.8 30.2 87% 30.11 0.0
02 06:35 Calm 10.00 Fair CLR 33.8 28.4 81% 30.11 0.0
02 06:15 W 3 10.00 Fair CLR 32 28.4 87% 30.11 0.0
02 05:55 W 5 10.00 Fair CLR 32 28.4 87% 28 30.11 0.0
02 05:35 W 5 10.00 Fair CLR 32 28.4 87% 28 30.11 0.0
02 05:15 W 5 10.00 Fair CLR 32 28.4 87% 28 30.11 0.0
02 04:55 W 5 10.00 Fair CLR 33.8 30.2 87% 30 30.11 0.0
02 04:35 SW 5 10.00 Fair CLR 33.8 30.2 87% 30 30.11 0.0
02 04:15 SW 5 10.00 Fair CLR 32 28.4 87% 28 30.11 0.0
02 03:55 SW 3 10.00 Fair CLR 33.8 28.4 81% 30.1 0.0
02 03:35 W 3 10.00 Fair CLR 33.8 28.4 81% 30.11 0.0
02 03:15 W 6 10.00 Fair CLR 33.8 30.2 87% 29 30.11 0.0
02 02:55 W 6 10.00 Fair CLR 35.6 30.2 81% 31 30.11 0.0
02 02:35 SW 5 10.00 Fair CLR 35.6 30.2 81% 32 30.11 0.0
02 02:15 SW 3 10.00 Fair CLR 37.4 30.2 75% 30.11 0.0
02 01:55 SW 3 10.00 Fair CLR 37.4 30.2 75% 30.12 0.0
02 01:35 SW 5 10.00 Fair CLR 37.4 30.2 75% 34 30.12 0.0
02 01:15 W 6 10.00 Fair CLR 35.6 30.2 81% 31 30.13 0.0
02 00:55 SW 5 10.00 Fair CLR 39.2 30.2 70% 36 30.12 0.0
02 00:35 SW 3 10.00 Fair CLR 39.2 28.4 65% 30.12 0.0
02 00:15 SW 5 10.00 Fair CLR 39.2 28.4 65% 36 30.12 0.0
01 23:55 SW 3 10.00 Fair CLR 41 28.4 61% 30.12 0.0
01 23:35 SW 3 10.00 Fair CLR 42.8 28.4 57% 30.12 0.0
01 23:15 SW 3 10.00 Fair CLR 42.8 28.4 57% 30.12 0.0
01 22:55 SW 3 10.00 Fair CLR 41 30.2 66% 30.12 0.0
01 22:35 SW 3 10.00 Fair CLR 39.2 30.2 70% 30.12 0.0
01 22:15 SW 5 10.00 Fair CLR 42.8 30.2 61% 41 30.12 0.0
01 21:55 Calm 10.00 Fair CLR 44.6 28.4 53% 30.12 0.0
01 21:35 Calm 10.00 Fair CLR 46.4 26.6 46% 30.12 0.0
01 21:15 Calm 10.00 Fair CLR 48.2 28.4 46% 30.12 0.0
01 20:55 Calm 10.00 Fair CLR 48.2 28.4 46% 30.11 0.0
01 20:35 Calm 10.00 Partly Cloudy SCT075 48.2 26.6 43% 30.1 0.0
01 20:15 Calm 10.00 Partly Cloudy SCT075 50 26.6 40% 30.1 0.0
01 19:55 NE 3 10.00 Mostly Cloudy BKN075 51.8 26.6 38% 30.09 0.0
01 19:35 NE 3 10.00 Overcast OVC075 51.8 26.6 38% 30.09 0.0
01 19:15 NW 9 10.00 Overcast OVC075 51.8 28.4 41% 30.09 0.0
01 18:55 NW 10 10.00 Mostly Cloudy BKN075 51.8 28.4 41% 30.09 0.0
01 18:35 NW 9 10.00 Partly Cloudy SCT075 51.8 28.4 41% 30.09 0.0
01 18:15 NW 8 10.00 Partly Cloudy SCT075 51.8 28.4 41% 30.09 0.0
01 17:55 N 3 10.00 Mostly Cloudy BKN075 51.8 26.6 38% 30.09 0.0
01 17:35 N 7 10.00 Partly Cloudy SCT075 51.8 26.6 38% 30.09 0.0
01 17:15 NW 10 G 16 10.00 Partly Cloudy SCT065 53.6 30.2 41% 30.09 0.0
01 16:55 N 7 10.00 Partly Cloudy SCT065 51.8 28.4 41% 30.09 0.0
01 16:35 NW 13 G 16 10.00 Mostly Cloudy BKN065 51.8 28.4 41% 30.09 0.0
01 16:15 NE 6 10.00 Mostly Cloudy BKN065 50 26.6 40% 48 30.09 0.0
01 15:55 N 8 G 16 10.00 Mostly Cloudy BKN065 51.8 30.2 44% 30.09 0.0
01 15:35 N 6 10.00 Mostly Cloudy BKN065 51.8 28.4 41% 30.1 0.0
01 15:15 N 8 10.00 Partly Cloudy SCT065 51.8 28.4 41% 30.1 0.0
01 14:55 N 6 G 9 10.00 Mostly Cloudy BKN065 51.8 30.2 44% 30.1 0.0
01 14:35 N 9 10.00 Partly Cloudy SCT065 51.8 30.2 44% 30.1 0.0
01 14:15 N 8 10.00 Partly Cloudy SCT055 51.8 30.2 44% 30.1 0.0
01 13:55 N 6 10.00 Mostly Cloudy BKN055 50 28.4 43% 48 30.1 0.0
01 13:35 NE 8 10.00 Mostly Cloudy BKN055 50 30.2 47% 47 30.1 0.0
01 13:15 NE 7 G 16 10.00 Mostly Cloudy BKN055 48.2 28.4 46% 46 30.11 0.0
01 12:55 NW 8 10.00 Mostly Cloudy BKN055 51.8 32 47% 30.1 0.0
01 12:35 NE 7 10.00 Mostly Cloudy BKN055 48.2 30.2 50% 46 30.11 0.0
01 12:15 NE 5 10.00 Mostly Cloudy BKN055 48.2 30.2 50% 47 30.11 0.0
01 11:55 N 3 10.00 Partly Cloudy SCT055 48.2 30.2 50% 30.11 0.0
01 11:35 NE 8 10.00 Partly Cloudy SCT055 48.2 32 54% 45 30.1 0.0
01 11:15 N 6 10.00 Partly Cloudy SCT065 48.2 30.2 50% 46 30.1 0.0
01 10:55 NE 6 10.00 Mostly Cloudy BKN065 46.4 30.2 53% 44 30.1 0.0
01 10:35 NE 7 10.00 Mostly Cloudy BKN065 46.4 30.2 53% 43 30.1 0.0
01 10:15 NE 3 10.00 Mostly Cloudy BKN065 44.6 30.2 57% 30.1 0.0
01 09:55 E 7 10.00 Mostly Cloudy BKN065 44.6 30.2 57% 41 30.1 0.0
01 09:35 E 7 10.00 Overcast OVC065 44.6 33.8 66% 41 30.1 0.0
01 09:15 NE 8 10.00 Mostly Cloudy BKN065 42.8 33.8 71% 39 30.1 0.0
01 08:55 NE 5 10.00 Mostly Cloudy BKN065 41 33.8 76% 38 30.1 0.0
01 08:35 NE 7 10.00 Partly Cloudy SCT065 41 33.8 76% 37 30.09 0.0
01 08:15 NE 7 10.00 Overcast OVC065 39.2 33.8 81% 35 30.09 0.0
01 07:55 NE 6 10.00 Overcast OVC065 39.2 33.8 81% 36 30.08 0.0
01 07:35 NE 7 10.00 Overcast OVC065 39.2 35.6 87% 35 30.08 0.0
01 07:15 N 5 10.00 Partly Cloudy SCT065 37.4 33.8 87% 34 30.07 0.0
01 06:55 Calm 10.00 Fair CLR 37.4 33.8 87% 30.06 0.0
01 06:35 Calm 10.00 Partly Cloudy SCT065 37.4 35.6 93% 30.05 0.0
01 06:15 Calm 10.00 Overcast OVC065 37.4 35.6 93% 30.05 0.0
01 05:55 N 3 10.00 Partly Cloudy SCT065 37.4 35.6 93% 30.04 0.0
01 05:35 NW 5 10.00 Fair CLR 37.4 35.6 93% 34 30.04 0.0
01 05:15 N 5 10.00 Fair CLR 37.4 35.6 93% 34 30.04 0.0
01 04:55 NW 5 10.00 Fair CLR 37.4 35.6 93% 34 30.04 0.0
01 04:35 NW 3 10.00 Fair CLR 37.4 37.4 100% 30.04 0.0
01 04:15 NW 5 10.00 Fair CLR 37.4 37.4 100% 34 30.04 0.0
01 03:55 NW 5 10.00 Partly Cloudy SCT090 37.4 37.4 100% 34 30.04 0.0
01 03:35 NW 5 7.00 Mostly Cloudy BKN090 37.4 37.4 100% 34 30.04 0.0
01 03:15 NW 6 7.00 Overcast OVC090 39.2 37.4 93% 36 30.04 0.0
01 02:55 W 6 10.00 Overcast OVC090 39.2 39.2 100% 36 30.04 0.0
01 02:35 W 5 10.00 Overcast OVC090 39.2 39.2 100% 36 30.04 0.0
01 02:15 W 5 10.00 Overcast OVC090 39.2 39.2 100% 36 30.04 0.0
01 01:55 W 3 10.00 Mostly Cloudy SCT060 SCT090 BKN110 39.2 39.2 100% 30.05 0.0
01 01:35 W 7 10.00 Overcast SCT060 OVC110 39.2 39.2 100% 35 30.05 0.0
01 01:15 W 6 10.00 Overcast SCT050 BKN075 OVC110 41 39.2 93% 38 30.05 0.0
01 00:55 W 3 10.00 Overcast BKN050 OVC075 41 41 100% 30.05 0.0
01 00:35 W 5 10.00 Overcast BKN060 OVC110 42.8 41 93% 41 30.05 0.0
01 00:15 W 5 10.00 Overcast SCT075 OVC100 42.8 41 93% 41 30.04 0.0
30 23:55 Calm 10.00 Overcast SCT060 SCT090 OVC110 42.8 41 93% 30.04 0.0
30 23:35 W 3 10.00 Overcast SCT060 BKN090 OVC110 42.8 41 93% 30.04 0.0
30 23:15 Calm 10.00 Overcast BKN050 OVC080 42.8 41 93% 30.04 0.0
30 22:55 Calm 10.00 Mostly Cloudy BKN050 BKN070 42.8 39.2 87% 30.04 0.0
30 22:35 Calm 10.00 Mostly Cloudy SCT055 BKN075 42.8 39.2 87% 30.04 0.0
30 22:15 Calm 10.00 Overcast BKN055 OVC075 42.8 39.2 87% 30.05 0.0
30 21:55 Calm 10.00 Overcast SCT055 BKN075 OVC090 42.8 39.2 87% 30.05 0.0
30 21:35 NE 6 10.00 Overcast SCT055 SCT065 OVC090 42.8 39.2 87% 40 30.05 0.0
30 21:15 N 3 10.00 Overcast SCT046 BKN050 OVC090 44.6 41 87% 30.05 0.0
30 20:55 NW 7 10.00 Light Rain SCT026 BKN048 OVC050 44.6 39.2 81% 41 30.05 0.0
30 20:35 NW 9 10.00 Light Rain SCT026 BKN032 OVC048 46.4 39.2 76% 42 30.05 0.0
Date Time (cdt) Wind (mph) Vis. (mi.) Weather Sky Cond. Air Dwpt Max. Min. Relative Humidity Wind Chill (°F) Heat Index (°F) altimeter (in) sea level (mb) 1 hr 3 hr 6 hr
6 hour
Temperature (ºF) Pressure Precipitation (in)